sat.trackr.live / text

‹ back to catalog

STARLINK-35185

NORAD 65608 · 2025-207S

PAYLOAD ACTIVE UNKNOWN

§ Identity

Operator
Country
US
Launch date
2025-09-13
Launch site
AFWTR
Launch vehicle
Mass (kg)
RCS (m²)

Purposes: comms

External: N2YO · Heavens-Above · Gunter

§ Orbital elements

Epoch: 2026-05-25T04:39:30.233088Z

Period
95.64 min
Inclination
97.4477°
Eccentricity
0.0001067
Mean motion
15.05660055 rev/d
Perigee alt
548.7 km
Apogee alt
550.2 km
Semi-major
6,927.6 km
B*
5.4905e-4
RAAN
213.7134°
Arg perigee
109.7826°
Mean anomaly
250.3516°
Rev number
3,977

§ Raw data

STARLINK-351851 65608U 25207S   26145.19409992  .00007874  00000+0  54905-3 0  99932 65608  97.4477 213.7134 0001067 109.7826 250.3516 15.05660055 39774

JSON: /api/v1/satellites/65608 · /tle

For live sub-satellite position, see the globe view (requires WebGL).

§ Visibility from observer

Set your observer location to see the next 7 days of passes ≥ 10°. The values pass through the URL so the page stays shareable.

No JS? Fill the form by hand. The geolocation button needs JavaScript.